Temperature
20 20 20 19 19 19 21 22 23 22 22 21 22 21 20 19 20 19 19 19 19 19 19 19 19 19 19 19 19 19 19 19 19 19 19 19 19 19 19 19 18 18 18 18 18 18 18 18 18
20 20 20 19 19 20 21 22 22 22 22 22 22 21 20 19 19 19 19 19 19 19 19 19 19 19 19 19 19 19 19 19 19 19 19 19 19 19 19 18 18 18 18 18 18 18 18 18 18
20 20 20 19 20 20 22 23 22 22 22 22 21 20 20 19 19 20 20 19 19 19 19 19 19 19 19 19 19 19 19 19 19 19 19 19 19 19 18 18 18 18 18 18 18 18 18 18 18
20 20 20 20 21 22 22 23 22 22 23 22 21 20 20 19 20 20 20 19 19 19 19 19 19 19 19 19 19 19 19 19 19 19 19 19 19 19 18 18 18 18 18 18 18 18 18 18 18
21 20 20 21 22 23 23 23 23 22 22 21 21 20 19 19 20 20 20 20 19 19 19 19 19 19 19 19 19 19 19 19 19 19 18 18 18 18 18 18 18 18 18 18 18 18 18 18 18
21 20 20 21 23 23 23 23 23 22 21 21 20 19 19 19 20 20 20 20 19 19 19 19 19 19 19 19 19 19 19 19 19 18 18 18 18 18 18 18 18 18 18 18 18 18 18 18 18
21 20 21 22 23 23 24 24 23 22 21 21 21 19 19 19 20 20 20 19 19 19 19 19 19 19 19 19 19 19 19 19 19 18 18 18 18 18 18 18 18 18 18 18 18 18 18 18 18
22 20 22 22 23 24 24 24 23 22 22 22 21 19 19 19 19 19 19 19 19 19 19 19 19 19 19 19 19 19 19 19 19 18 18 18 18 18 18 18 18 18 18 18 18 18 18 18 18
22 21 22 23 24 24 24 23 23 23 22 22 22 21 21 20 19 19 19 19 19 19 19 19 19 19 19 19 19 19 19 19 19 18 18 18 18 18 18 18 18 18 18 18 18 18 18 18 18
22 21 23 24 24 24 24 24 23 23 22 21 21 21 21 20 20 20 19 19 19 19 19 19 19 19 19 19 19 19 19 19 19 19 19 18 18 18 18 18 18 18 18 18 18 18 18 18 18
22 22 24 25 25 25 24 24 24 22 21 21 21 21 20 20 20 20 20 20 20 19 19 19 19 19 19 19 19 19 19 19 19 19 19 19 19 18 18 18 18 18 18 18 18 18 18 18 18
23 24 25 25 26 25 24 24 23 23 23 23 22 22 21 20 20 20 20 20 20 20 20 19 19 19 19 19 19 19 19 19 19 19 19 19 19 18 18 18 18 18 18 18 18 18 18 18 18
25 25 26 26 26 25 25 24 23 23 24 23 22 21 21 21 20 20 20 20 20 20 20 20 20 19 19 19 19 19 19 19 19 19 18 18 19 18 18 18 18 18 18 18 18 18 18 18 18
25 25 25 25 25 25 24 23 23 23 23 22 21 21 21 21 21 21 21 21 20 20 20 20 20 20 19 19 19 19 19 19 19 18 18 18 18 18 18 18 18 18 18 18 18 18 18 18 18
26 24 24 25 25 25 24 23 23 23 22 21 21 21 21 21 21 21 21 21 21 21 20 20 20 20 20 19 19 19 19 19 19 18 18 18 18 18 18 18 18 18 18 18 18 18 18 18 18
25 24 24 25 25 25 24 23 23 23 22 21 21 21 21 21 21 22 21 21 21 21 21 20 20 20 19 19 19 19 19 19 19 18 18 18 18 18 18 18 18 18 18 18 18 18 18 18 18
23 23 24 25 25 24 24 23 23 23 22 21 21 21 21 21 21 22 22 22 21 21 21 20 20 20 20 19 19 19 19 19 19 18 18 18 18 18 18 18 18 18 18 18 18 18 18 18 18
24 24 24 24 24 24 23 23 23 22 22 22 22 22 21 21 22 22 22 22 21 21 21 20 20 20 20 19 19 19 19 19 18 18 18 18 18 18 18 18 18 18 18 18 18 18 18 18 17
25 24 24 24 25 24 23 23 22 22 22 22 22 22 22 22 22 22 22 22 21 21 21 20 20 20 20 19 19 19 19 19 19 18 18 18 18 18 18 18 18 18 18 18 18 18 18 18 17
25 24 24 24 24 24 23 23 23 22 22 22 22 22 22 22 22 22 22 22 21 21 21 21 20 20 20 20 19 19 19 19 19 19 18 18 18 18 18 18 18 18 18 18 18 18 18 17 17
24 24 24 24 24 23 23 23 22 22 22 22 22 22 23 23 23 22 22 22 21 21 21 21 21 20 20 20 19 19 19 19 19 18 18 18 18 18 18 18 18 18 18 18 18 18 17 17 17
24 25 25 24 23 21 23 22 22 21 21 21 22 22 23 23 23 23 22 22 22 22 21 21 21 21 20 20 20 19 19 19 19 19 19 18 18 18 18 18 18 18 18 18 18 18 17 17 17
25 25 24 23 22 21 21 21 21 21 21 21 21 22 23 23 23 23 23 23 22 22 22 21 21 21 20 20 20 20 19 19 19 19 19 18 18 18 18 18 18 18 18 18 18 18 17 17 17
25 24 22 20 20 21 21 21 21 20 21 21 22 22 23 23 23 23 23 22 22 22 22 22 21 21 21 20 20 20 20 19 19 19 19 18 18 18 18 18 18 18 18 18 18 17 17 17 17
24 22 21 21 20 20 20 21 20 22 21 22 22 23 23 23 23 23 23 22 22 22 22 21 21 21 21 20 20 20 20 19 19 19 19 18 18 18 18 18 18 18 18 17 17 17 17 17 17
23 22 21 22 21 20 20 20 21 22 22 23 23 23 23 23 23 23 23 23 23 23 22 22 22 21 21 21 20 20 20 19 19 19 19 19 18 18 18 18 18 18 17 17 17 17 17 17 17
23 21 21 20 20 20 20 20 21 22 22 22 22 22 23 23 23 23 23 23 23 23 22 22 22 22 21 21 20 20 20 19 19 19 19 18 18 18 18 18 17 17 17 17 17 17 17 17 17
23 20 18 19 20 20 21 21 21 22 22 21 21 21 23 23 23 23 23 23 23 23 22 22 22 22 21 21 20 20 20 20 19 19 19 19 18 18 18 18 17 17 17 17 17 17 16 16 16
22 21 19 17 18 19 20 21 22 21 21 21 21 22 23 23 23 23 23 23 23 23 22 22 22 21 21 21 20 20 20 20 19 19 19 19 18 18 18 18 17 17 17 17 17 17 16 16 16
22 21 18 20 19 17 19 21 22 21 21 21 21 22 23 23 24 23 23 23 22 22 22 22 22 21 21 20 20 20 20 19 19 19 19 18 18 18 18 17 17 17 17 17 16 16 16 16 16
Wind_Speed
9 7 3 1 2 4 2 3 0 2 3 3 5 6 6 4 2 2 1 5 7 6 7 10 11 11 12 12 12 12 12 12 11 11 11 12 12 12 11 11 11 11 12 11 11 10 10 10 10
7 5 2 1 3 3 3 3 2 2 4 5 6 5 6 4 3 5 3 5 7 7 7 9 10 11 11 11 11 11 11 11 11 11 11 11 11 11 11 11 11 11 11 11 10 10 9 9 9
6 4 1 3 2 2 1 1 3 4 4 3 4 5 4 3 4 3 4 8 7 6 7 8 10 10 10 10 10 10 10 10 10 10 10 10 10 10 10 9 9 10 10 10 10 9 9 9 9
3 1 2 3 2 1 2 2 4 4 4 5 4 5 4 3 4 5 8 9 8 5 6 8 10 9 9 9 8 9 9 9 9 10 10 10 9 9 9 8 9 9 9 9 9 9 9 9 8
1 2 4 3 2 1 1 2 2 3 3 4 4 5 3 3 8 10 10 8 7 5 5 7 9 9 8 7 8 8 8 8 8 8 9 9 8 8 8 7 8 8 8 8 8 8 8 8 7
2 3 4 2 3 2 2 2 3 6 5 4 4 4 3 4 7 9 8 7 6 5 4 6 8 8 8 7 7 7 7 7 7 7 7 7 7 7 7 6 7 7 7 7 7 7 7 7 6
2 3 1 0 2 2 1 2 3 4 4 3 4 5 3 4 6 8 7 6 5 4 3 3 4 6 6 6 6 6 6 7 6 6 6 7 7 6 6 5 5 6 6 6 6 6 6 6 6
2 3 2 1 1 0 2 2 3 4 4 4 4 6 5 6 8 8 7 6 5 3 3 2 3 3 3 4 5 6 6 6 5 5 5 6 6 6 6 5 4 5 5 5 5 5 6 6 5
2 3 1 2 2 2 2 3 2 3 5 3 3 4 6 12 12 10 7 5 3 3 2 2 2 2 2 3 4 4 5 5 5 4 5 5 4 4 4 4 4 4 4 4 4 5 5 5 5
3 2 4 3 3 4 3 3 4 5 4 3 6 7 11 13 12 11 8 7 5 4 3 2 2 1 1 2 3 3 4 4 4 4 4 5 4 3 3 3 4 4 4 4 4 5 5 4 4
4 4 3 1 2 4 4 3 3 8 4 5 9 13 14 13 11 10 8 7 6 5 4 3 3 2 2 1 2 2 3 3 4 4 5 5 3 2 2 2 2 3 3 3 4 4 3 3 3
3 4 3 1 3 4 5 5 4 5 5 7 12 15 14 13 11 10 9 7 6 5 5 4 3 2 2 2 1 2 2 3 3 4 4 4 2 2 2 1 1 1 1 2 2 2 2 3 3
2 2 1 2 3 4 5 4 4 2 4 10 13 13 13 12 9 8 7 6 6 6 5 4 4 3 2 2 1 2 2 3 3 3 3 3 2 2 1 1 1 1 1 1 1 1 2 2 2
1 1 1 1 2 2 5 2 3 2 8 11 12 12 11 11 10 8 7 7 7 7 6 5 5 4 3 2 2 1 2 3 3 3 3 3 3 2 2 1 1 1 1 1 2 1 1 1 1
1 3 4 2 2 2 6 2 2 6 10 10 10 10 10 10 10 10 10 9 8 7 6 6 6 5 4 3 3 2 2 3 2 2 3 3 3 3 2 1 1 1 1 2 2 2 2 2 2
4 4 2 3 2 2 5 3 4 8 11 10 10 10 10 9 10 10 9 8 8 7 7 7 6 6 5 4 3 2 2 2 2 2 3 3 3 4 3 2 1 1 2 2 2 2 2 2 1
5 1 3 4 2 3 3 4 4 8 11 11 10 10 10 9 9 9 10 10 9 9 8 7 6 6 5 4 3 2 2 2 2 2 3 3 3 4 3 2 1 2 2 2 2 2 2 2 1
2 2 3 4 3 3 3 5 4 9 11 11 10 9 10 11 11 9 9 10 9 8 7 7 6 6 5 4 3 2 2 1 1 2 3 4 4 4 4 2 2 2 2 2 2 2 2 2 1
3 3 4 5 2 3 4 5 6 8 10 10 10 10 10 11 9 7 8 8 7 7 7 7 6 6 5 3 3 3 2 1 1 1 2 4 4 4 3 2 2 2 2 2 2 2 2 2 2
3 2 4 4 1 2 2 4 4 7 10 10 12 12 12 9 7 8 8 8 9 8 8 8 7 7 6 4 3 3 3 2 1 1 2 3 4 4 3 3 2 2 2 2 2 2 2 1 2
3 5 4 3 2 3 1 4 3 4 5 6 8 9 10 12 12 11 10 10 9 9 10 9 8 7 7 6 4 3 3 2 1 1 1 1 3 4 4 4 3 3 3 2 1 2 3 2 1
5 5 4 2 2 2 1 3 6 4 5 7 9 9 11 12 11 11 11 11 11 11 10 9 8 7 7 7 7 7 5 4 3 2 2 1 2 3 4 4 3 3 2 2 2 2 2 3 2
5 0 3 2 3 1 2 1 7 2 5 8 9 10 11 11 12 12 13 13 11 10 10 9 8 8 7 7 8 7 5 4 3 2 2 2 1 2 3 4 3 2 2 2 2 2 2 2 2
3 5 6 5 5 1 3 3 6 4 7 6 8 9 9 10 11 12 11 9 9 8 8 8 9 8 8 8 8 8 8 6 5 4 3 2 1 1 2 3 3 2 2 2 2 2 2 2 2
5 6 4 4 3 5 3 3 8 7 6 7 7 9 9 9 10 11 11 12 11 11 10 9 9 8 8 8 8 8 8 8 7 6 5 4 2 2 3 3 2 2 2 2 2 2 2 2 2
4 8 7 5 5 5 2 5 7 6 5 5 5 5 7 8 10 11 12 12 13 13 12 10 10 9 8 8 8 7 7 6 5 6 5 5 4 4 3 3 3 3 3 3 2 2 2 2 2
5 4 6 6 2 1 5 6 8 3 3 3 3 3 6 8 9 10 11 11 12 12 12 12 11 10 9 9 8 7 7 7 6 5 5 4 3 3 4 4 4 3 3 3 3 2 2 2 2
5 8 6 5 5 4 5 5 5 6 6 4 4 5 6 7 8 9 10 11 11 11 11 11 11 11 10 9 8 8 7 7 6 5 5 4 4 3 4 4 4 3 3 3 3 3 2 2 1
3 4 5 5 5 6 4 7 7 9 8 7 8 7 7 7 7 8 8 8 8 8 9 10 10 9 8 8 7 7 7 7 6 6 6 6 5 5 5 5 4 4 4 3 3 3 3 3 1
4 6 7 5 4 5 5 8 6 6 6 6 7 6 6 6 6 7 7 6 7 8 9 10 10 10 9 9 8 7 7 7 7 7 6 6 6 6 6 5 5 4 4 4 4 4 4 4 3
Wind_Direction
151 144 145 144 50 44 357 327 77 67 58 61 78 83 92 80 107 137 106 126 126 130 140 141 134 130 127 125 124 122 121 121 121 123 126 128 128 127 127 129 129 130 131 132 131 129 129 128 127
147 157 178 66 67 43 335 332 58 76 131 126 79 70 70 60 63 104 118 130 128 130 135 140 137 134 132 128 126 124 123 124 125 125 126 129 130 130 131 132 134 135 136 136 133 133 132 132 129
166 189 95 61 70 143 252 345 94 86 103 98 78 62 72 89 113 130 137 131 119 119 132 144 140 137 135 132 130 128 127 128 129 129 128 128 128 129 131 134 138 141 141 139 138 137 135 133 133
163 112 54 60 39 249 194 172 121 104 64 53 89 71 63 79 135 134 128 127 119 115 133 148 143 142 140 137 136 132 134 134 132 133 132 129 129 132 132 135 139 144 146 143 141 139 137 134 134
93 77 49 28 343 337 70 137 114 87 57 57 80 84 51 41 103 119 127 129 128 128 139 149 145 145 144 142 143 143 142 140 137 134 133 135 136 134 133 139 141 143 144 142 142 141 138 135 134
45 59 59 9 356 15 51 78 86 81 85 80 77 85 59 99 115 128 128 126 128 129 135 144 145 145 146 148 149 147 145 142 141 138 138 140 138 137 137 142 142 143 144 144 143 143 140 138 138
88 71 70 344 7 25 101 91 107 110 105 112 110 95 100 136 132 126 120 114 109 111 110 121 139 143 144 148 148 147 148 148 147 145 143 141 138 138 139 139 137 136 139 145 148 149 146 142 139
143 93 28 0 93 49 105 83 106 114 110 122 117 134 167 167 136 119 108 103 103 101 98 95 103 115 124 137 138 139 145 146 148 148 151 152 143 134 134 131 131 131 134 138 146 151 147 143 135
139 66 345 233 174 173 139 115 107 90 114 117 106 141 151 136 133 123 117 111 124 135 110 104 98 99 109 126 131 129 132 133 131 129 132 122 109 110 124 134 132 129 129 135 129 130 132 128 124
118 125 234 227 182 158 158 145 145 114 108 95 84 95 119 131 139 144 151 157 164 170 167 154 145 121 115 125 101 92 94 97 94 91 96 99 97 106 119 126 122 115 106 109 108 100 103 102 104
169 200 246 238 159 142 138 139 127 133 165 177 152 143 140 143 149 158 167 170 177 177 177 175 171 154 126 103 93 90 96 99 94 97 105 102 89 80 69 58 66 78 85 73 77 75 77 88 100
194 247 216 192 147 141 148 144 132 167 199 162 150 148 148 155 164 173 177 179 171 174 188 185 171 159 151 139 128 118 114 113 107 110 113 109 95 76 69 65 54 58 66 73 77 84 76 82 98
213 279 249 148 132 137 126 129 140 160 126 129 137 148 158 165 173 177 178 178 173 181 189 187 173 168 161 145 155 128 123 122 123 121 123 130 129 114 108 94 78 73 83 96 94 84 81 87 91
260 352 352 36 87 109 115 93 107 160 134 137 148 162 170 174 175 173 176 178 183 185 187 182 177 170 158 160 152 133 140 135 134 145 163 165 166 148 128 102 84 56 76 118 121 119 104 96 100
56 47 15 23 75 108 102 60 207 163 144 153 166 173 180 183 180 185 185 184 187 186 180 179 180 165 165 172 173 153 155 151 147 170 180 180 174 163 147 116 88 58 76 98 103 92 90 102 108
42 52 355 286 120 132 116 236 240 158 156 171 181 183 187 194 194 193 185 183 183 176 175 184 182 166 171 167 158 137 144 152 159 167 165 170 168 160 146 129 122 102 97 103 108 98 88 83 86
30 6 286 293 185 142 149 239 224 169 170 183 192 193 192 197 204 198 188 183 182 179 176 179 174 165 168 158 140 122 122 130 152 146 147 158 152 147 139 132 131 117 102 98 115 106 116 111 90
250 262 269 268 237 155 204 247 219 181 185 193 198 199 198 203 210 199 189 184 180 179 178 177 172 165 155 138 118 103 94 85 109 137 154 153 145 140 132 123 115 114 106 90 96 107 98 107 109
199 217 261 264 222 164 216 241 233 192 193 202 203 204 208 212 209 192 186 179 172 173 176 178 176 170 154 144 149 148 162 150 119 138 151 151 146 139 132 127 115 113 119 119 116 113 98 75 82
206 239 270 297 317 159 221 256 246 198 205 207 207 206 208 204 191 187 182 177 178 179 180 179 183 177 172 170 162 153 143 147 153 123 118 141 144 145 147 137 131 125 118 99 96 107 117 97 88
252 211 226 239 352 44 74 315 264 229 218 224 219 210 205 201 194 189 188 189 181 185 187 187 185 179 176 163 138 120 94 82 93 116 134 145 152 154 151 147 144 135 136 145 154 149 143 145 101
266 242 203 188 94 316 79 282 287 250 230 228 229 216 209 205 194 188 189 192 192 194 189 182 180 178 175 164 161 161 165 172 187 177 168 143 146 152 151 148 144 141 143 154 176 155 154 149 164
226 143 112 117 126 35 15 178 289 310 249 243 232 224 214 205 195 190 193 194 195 191 187 183 179 181 177 175 175 171 170 171 155 148 146 145 135 143 149 151 151 151 149 154 139 123 137 145 162
156 70 59 50 72 335 255 178 279 247 233 244 230 224 215 198 192 190 189 184 186 184 185 181 181 187 183 180 181 179 175 168 159 163 171 175 165 154 156 156 159 159 158 164 163 149 141 142 145
94 89 34 0 6 252 261 198 249 253 234 227 227 222 214 196 188 186 183 184 186 186 188 186 185 191 189 184 189 190 184 177 179 180 185 181 179 190 195 174 169 168 180 175 159 151 158 162 155
176 143 161 203 223 267 295 232 252 256 251 243 238 221 203 191 187 188 190 191 191 191 190 188 188 190 188 190 195 191 184 183 187 183 182 187 194 197 188 176 174 174 169 167 156 159 180 162 169
149 171 163 142 165 240 272 278 297 272 268 253 236 213 208 198 192 191 187 189 191 191 192 191 190 191 192 191 185 186 185 183 186 183 181 184 188 185 174 171 171 169 164 162 156 161 169 152 168
142 146 107 126 162 234 274 266 249 259 254 251 225 217 220 203 190 189 188 190 191 191 191 189 192 195 193 187 188 193 185 182 180 175 181 185 183 169 163 171 173 169 168 166 159 160 158 146 176
118 115 118 127 160 169 235 263 227 225 225 219 221 216 212 202 193 191 192 193 186 181 185 189 191 190 185 184 184 185 183 182 177 182 191 189 182 173 175 179 178 179 180 175 168 175 164 170 197
171 168 147 157 215 186 190 257 263 233 231 224 222 215 209 198 189 190 187 178 178 182 185 188 188 187 186 182 181 188 184 181 186 192 196 189 187 184 182 179 178 187 189 185 180 187 183 184 197
Height
1498 1498 1499 1501 1503 1509 1510 1502 1496 1496 1497 1497 1498 1498 1500 1504 1507 1512 1508 1508 1509 1511 1512 1514 1515 1516 1517 1518 1519 1520 1522 1523 1524 1525 1526 1527 1529 1530 1531 1532 1534 1535 1536 1538 1539 1541 1543 1544 1545
1498 1499 1501 1501 1508 1519 1512 1500 1498 1496 1497 1498 1499 1501 1502 1504 1505 1506 1507 1509 1511 1513 1514 1515 1517 1518 1519 1520 1521 1523 1524 1525 1526 1527 1528 1529 1530 1532 1533 1534 1535 1537 1538 1539 1541 1542 1544 1545 1547
1499 1500 1502 1503 1509 1516 1510 1500 1498 1497 1498 1498 1501 1502 1504 1506 1507 1507 1509 1511 1513 1514 1516 1518 1519 1520 1521 1522 1523 1524 1525 1527 1528 1529 1530 1531 1532 1533 1534 1536 1537 1538 1539 1541 1542 1544 1545 1547 1548
1500 1501 1502 1507 1510 1505 1501 1499 1498 1498 1499 1500 1501 1504 1506 1509 1509 1510 1511 1513 1515 1516 1518 1519 1521 1522 1523 1524 1525 1526 1527 1528 1529 1530 1531 1532 1533 1535 1536 1537 1538 1539 1540 1542 1543 1545 1546 1548 1549
1501 1502 1506 1511 1508 1502 1499 1498 1498 1499 1500 1502 1503 1506 1509 1510 1511 1512 1513 1515 1517 1518 1520 1521 1522 1524 1525 1525 1526 1527 1528 1529 1531 1532 1533 1534 1535 1536 1537 1538 1539 1540 1541 1543 1544 1546 1548 1549 1550
1502 1503 1513 1516 1508 1502 1500 1499 1500 1501 1502 1504 1505 1507 1510 1512 1513 1514 1516 1518 1519 1521 1522 1523 1524 1525 1526 1527 1527 1528 1529 1530 1532 1533 1534 1535 1536 1537 1538 1539 1540 1541 1543 1544 1545 1547 1549 1550 1551
1504 1506 1512 1511 1510 1505 1502 1501 1502 1502 1504 1505 1506 1508 1511 1513 1515 1516 1518 1520 1522 1523 1524 1525 1526 1527 1527 1528 1528 1529 1530 1531 1532 1534 1535 1536 1537 1538 1539 1540 1541 1542 1544 1545 1547 1548 1550 1551 1552
1503 1507 1510 1510 1509 1507 1502 1503 1503 1504 1505 1506 1507 1508 1510 1513 1515 1517 1520 1522 1523 1525 1526 1527 1528 1528 1529 1529 1530 1530 1530 1531 1533 1534 1536 1537 1538 1540 1541 1541 1542 1544 1545 1546 1548 1549 1551 1552 1553
1504 1510 1514 1508 1506 1505 1502 1503 1505 1505 1506 1507 1507 1508 1510 1512 1515 1518 1521 1523 1525 1527 1528 1529 1530 1530 1531 1531 1532 1532 1532 1533 1534 1536 1537 1539 1540 1541 1542 1543 1544 1545 1546 1547 1549 1550 1551 1553 1554
1504 1512 1508 1501 1500 1501 1502 1502 1503 1505 1507 1508 1508 1510 1512 1513 1516 1519 1521 1524 1526 1528 1529 1530 1531 1532 1533 1533 1533 1534 1534 1535 1536 1537 1539 1540 1541 1542 1543 1544 1545 1546 1547 1548 1550 1551 1552 1554 1555
1503 1505 1500 1498 1498 1499 1500 1502 1503 1504 1507 1507 1507 1510 1512 1515 1518 1520 1523 1525 1527 1529 1531 1532 1533 1534 1534 1535 1535 1535 1536 1537 1538 1539 1540 1541 1542 1543 1545 1545 1546 1548 1549 1550 1551 1552 1553 1554 1555
1502 1499 1499 1498 1498 1499 1500 1502 1504 1504 1505 1506 1508 1510 1513 1516 1518 1521 1524 1526 1528 1530 1531 1533 1534 1535 1536 1536 1537 1537 1538 1538 1539 1540 1541 1542 1544 1545 1546 1547 1548 1549 1550 1551 1552 1553 1554 1555 1556
1500 1498 1497 1497 1498 1499 1500 1502 1503 1504 1505 1507 1510 1512 1515 1517 1520 1523 1525 1527 1529 1531 1533 1534 1535 1536 1537 1538 1538 1539 1540 1540 1541 1542 1543 1544 1545 1546 1547 1548 1549 1549 1551 1552 1553 1554 1555 1556 1556
1499 1498 1498 1498 1498 1500 1502 1504 1505 1505 1507 1509 1511 1514 1516 1518 1521 1523 1525 1527 1529 1531 1533 1535 1536 1537 1538 1539 1540 1540 1541 1542 1542 1543 1544 1545 1546 1547 1548 1549 1549 1550 1551 1552 1553 1554 1555 1556 1557
1499 1501 1501 1499 1499 1501 1503 1508 1505 1505 1508 1510 1512 1515 1517 1519 1521 1523 1525 1527 1529 1531 1533 1535 1537 1538 1539 1540 1540 1541 1542 1543 1544 1544 1545 1546 1547 1548 1549 1549 1550 1551 1552 1553 1554 1554 1555 1556 1557
1501 1506 1511 1503 1501 1502 1507 1514 1505 1506 1508 1510 1512 1515 1517 1519 1521 1523 1525 1527 1530 1532 1533 1535 1537 1538 1539 1540 1541 1542 1543 1543 1544 1545 1546 1547 1548 1548 1549 1550 1551 1551 1552 1553 1554 1555 1555 1556 1556
1511 1517 1515 1507 1501 1502 1507 1510 1504 1505 1507 1510 1512 1514 1516 1518 1520 1522 1524 1527 1529 1531 1533 1534 1536 1538 1539 1540 1541 1542 1543 1544 1545 1546 1547 1547 1548 1549 1550 1550 1551 1552 1552 1553 1554 1555 1555 1556 1556
1518 1517 1514 1511 1503 1504 1508 1507 1504 1505 1506 1508 1510 1513 1515 1516 1518 1520 1523 1525 1528 1530 1532 1534 1536 1537 1539 1540 1541 1542 1543 1544 1545 1546 1547 1548 1549 1549 1550 1550 1551 1551 1552 1552 1553 1554 1555 1555 1556
1507 1511 1513 1507 1500 1504 1508 1507 1504 1503 1506 1507 1509 1511 1512 1514 1517 1520 1522 1525 1527 1530 1531 1533 1535 1536 1538 1539 1540 1542 1543 1544 1545 1546 1547 1548 1549 1549 1550 1550 1551 1551 1551 1552 1553 1554 1554 1555 1555
1505 1511 1511 1506 1500 1504 1508 1507 1502 1502 1503 1503 1505 1507 1509 1512 1515 1518 1520 1523 1525 1527 1530 1532 1534 1535 1537 1539 1540 1542 1543 1544 1545 1546 1547 1548 1549 1549 1550 1550 1550 1551 1551 1552 1552 1553 1553 1554 1554
1505 1509 1509 1509 1504 1504 1508 1511 1505 1501 1502 1502 1503 1504 1506 1508 1511 1514 1517 1520 1523 1525 1528 1530 1532 1534 1536 1538 1539 1541 1542 1543 1544 1545 1546 1548 1548 1549 1549 1550 1550 1550 1551 1551 1551 1552 1553 1553 1554
1507 1498 1500 1504 1512 1520 1514 1528 1509 1503 1502 1500 1500 1501 1502 1504 1507 1511 1514 1517 1520 1523 1526 1528 1531 1533 1535 1536 1538 1539 1540 1542 1543 1544 1546 1547 1548 1549 1549 1549 1550 1550 1550 1551 1551 1552 1552 1552 1553
1498 1494 1499 1504 1513 1521 1519 1527 1517 1505 1504 1499 1496 1496 1497 1500 1503 1507 1510 1514 1517 1520 1523 1526 1529 1531 1533 1534 1536 1538 1539 1541 1543 1544 1545 1546 1547 1548 1548 1549 1549 1550 1550 1550 1551 1551 1551 1552 1552
1492 1499 1505 1513 1521 1533 1522 1527 1522 1508 1500 1494 1491 1492 1493 1495 1499 1503 1507 1511 1514 1517 1520 1523 1526 1528 1531 1533 1535 1536 1538 1540 1541 1543 1544 1545 1546 1547 1548 1548 1549 1549 1549 1549 1550 1550 1551 1551 1551
1496 1512 1531 1534 1541 1537 1522 1523 1517 1495 1490 1488 1487 1487 1489 1492 1495 1499 1503 1506 1510 1513 1516 1519 1522 1525 1528 1531 1533 1535 1537 1538 1540 1541 1543 1544 1545 1546 1547 1547 1548 1548 1548 1548 1549 1549 1550 1550 1550
1498 1508 1530 1541 1543 1535 1523 1523 1504 1488 1485 1484 1484 1484 1486 1488 1492 1495 1498 1502 1506 1509 1512 1515 1518 1521 1525 1528 1530 1533 1535 1537 1538 1540 1541 1542 1543 1544 1545 1546 1546 1547 1547 1548 1548 1548 1548 1548 1548
1498 1506 1506 1524 1530 1535 1528 1514 1497 1486 1484 1483 1483 1483 1484 1485 1488 1491 1494 1498 1501 1505 1508 1512 1515 1518 1521 1524 1527 1530 1532 1534 1536 1537 1539 1540 1541 1542 1543 1544 1545 1545 1545 1546 1546 1546 1547 1547 1547
1489 1499 1514 1525 1537 1541 1528 1518 1509 1491 1486 1483 1482 1482 1482 1484 1486 1488 1491 1494 1498 1501 1505 1509 1512 1515 1518 1521 1524 1527 1529 1531 1533 1535 1536 1538 1539 1540 1541 1542 1543 1543 1543 1544 1544 1544 1545 1545 1545
1495 1501 1509 1521 1524 1535 1537 1520 1488 1484 1481 1480 1479 1479 1480 1481 1484 1486 1489 1492 1495 1498 1502 1505 1508 1512 1515 1518 1521 1523 1526 1528 1530 1532 1534 1535 1537 1538 1539 1539 1540 1541 1541 1542 1542 1542 1543 1543 1543
1487 1494 1505 1517 1523 1526 1527 1513 1477 1477 1477 1476 1476 1476 1478 1479 1482 1484 1487 1490 1493 1495 1498 1502 1505 1508 1511 1514 1517 1520 1522 1524 1527 1529 1531 1532 1534 1535 1536 1537 1537 1538 1539 1540 1540 1540 1541 1541 1541